This demonstration page uses our WeatherBlox Daily Observations layout. Learn more.

Left ArrowRight Arrow

39.01783, -85.05884

Hourly Observations for February 27, 2019

Temp ( °F °C ) Dew Point ( °F °C ) Humidity (%) Winds ( mph kmh ) Pressure ( in mb ) Visibility ( mi km ) Precip ( " mm )
12:52 am 00:52 Clear 33 0.6 21 -6.1 61 61 ENE 10 17 30.24 1024 10 16 0.00 0.00
1:52 am 01:52 Mostly Clear 32 0 21 -6.1 64 64 ENE 9 15 30.21 1023 10 16 0.00 0.00
2:52 am 02:52 Mostly Clear 31 -0.6 21 -6.1 67 67 ENE 7 11 30.20 1023 10 16 0.00 0.00
3:52 am 03:52 Clear 30 -1.1 21 -6.1 69 69 ESE 6 9 30.15 1021 10 16 0.00 0.00
4:52 am 04:52 Partly Cloudy 31 -0.6 20 -6.7 64 64 E 5 7 30.16 1021 10 16 0.00 0.00
5:52 am 05:52 Mostly Clear 30 -1.1 21 -6.1 69 69 SSE 10 17 30.11 1020 10 16 0.00 0.00
6:52 am 06:52 Partly Cloudy 30 -1.1 20 -6.7 66 66 E 6 9 30.14 1021 10 16 0.00 0.00
7:52 am 07:52 Sunny 31 -0.6 21 -6.1 67 67 E 3 6 30.14 1021 10 16 0.00 0.00
8:52 am 08:52 Sunny 36 2.2 23 -5 59 59 SE 7 11 30.13 1020 10 16 0.00 0.00
9:52 am 09:52 Mostly Sunny 43 6.1 24 -4.4 47 47 S 6 9 30.12 1020 10 16 0.00 0.00
10:52 am 10:52 Mostly Sunny 49 9.4 25 -3.9 39 39 SW 9 15 30.09 1019 10 16 0.00 0.00
11:52 am 11:52 Mostly Cloudy 54 12.2 28 -2.2 37 37 SW 8 13 30.06 1018 10 16 0.00 0.00
12:52 pm 12:52 Mostly Cloudy 55 12.8 31 -0.6 40 40 SSW 12 19 30.04 1017 10 16 0.00 0.00
1:52 pm 13:52 Cloudy 60 15.6 37 2.8 42 42 WSW 12 19 30.01 1016 10 16 0.00 0.00
2:52 pm 14:52 Cloudy 60 15.6 38 3.3 44 44 W 10 17 29.99 1016 10 16 0.00 0.00
3:52 pm 15:52 Cloudy 60 15.6 40 4.4 47 47 W 10 17 29.97 1015 10 16 0.00 0.00
4:52 pm 16:52 Cloudy 58 14.4 40 4.4 51 51 W 8 13 29.97 1015 10 16 0.00 0.00
5:52 pm 17:52 Cloudy 57 13.9 40 4.4 53 53 W 17 28 29.98 1015 10 16 0.00 0.00
6:52 pm 18:52 Cloudy 50 10 35 1.7 57 57 NW 17 28 30.03 1017 10 16 0.00 0.00
7:52 pm 19:52 Cloudy 47 8.3 33 0.6 59 59 N 18 30 30.06 1018 10 16 0.00 0.00
8:52 pm 20:52 Cloudy 43 6.1 31 -0.6 63 63 NNW 16 26 30.08 1019 9 14 0.00 0.00
9:41 pm 21:41 Cloudy 39 3.9 30 -1.1 70 70 N 16 26 30.13 1020 9 14 0.00 0.00
9:52 pm 21:52 Cloudy 39 3.9 29 -1.7 67 67 NNW 18 30 30.11 1020 9 14 0.00 0.00
10:52 pm 22:52 Cloudy 37 2.8 27 -2.8 67 67 NNW 17 28 30.11 1020 10 16 0.00 0.00
11:52 pm 23:52 Cloudy 36 2.2 27 -2.8 70 70 NNW 10 17 30.11 1020 10 16 0.00 0.00

Powered by AerisWeather